QPF
0.00 0.00 0.00 0.00 0.00 0.00 0.00 0.00 0.00 0.00 0.00 0.00 0.00 0.00 0.00 0.00 0.00 0.00 0.00 0.00 0.00 0.00 0.00 0.00 0.00 0.00 0.00 0.00 0.00 0.00 0.00 0.00 0.00 0.00 0.00 0.00 0.00 0.00 0.00 0.00 0.00 0.00 0.00
0.00 0.00 0.00 0.00 0.00 0.00 0.00 0.00 0.00 0.00 0.00 0.00 0.00 0.00 0.00 0.00 0.00 0.00 0.00 0.00 0.00 0.00 0.00 0.00 0.00 0.00 0.00 0.00 0.00 0.00 0.00 0.00 0.00 0.00 0.00 0.00 0.00 0.00 0.00 0.00 0.00 0.00 0.00
0.01 0.00 0.00 0.00 0.00 0.00 0.00 0.00 0.00 0.00 0.00 0.00 0.00 0.00 0.00 0.00 0.00 0.00 0.00 0.00 0.00 0.00 0.00 0.00 0.00 0.00 0.00 0.00 0.00 0.00 0.00 0.00 0.00 0.00 0.00 0.00 0.00 0.00 0.00 0.00 0.00 0.00 0.00
0.00 0.00 0.00 0.00 0.00 0.01 0.00 0.00 0.00 0.00 0.00 0.00 0.00 0.00 0.00 0.00 0.00 0.00 0.00 0.00 0.00 0.00 0.00 0.00 0.00 0.00 0.00 0.00 0.00 0.00 0.00 0.00 0.00 0.00 0.00 0.00 0.00 0.00 0.00 0.00 0.00 0.00 0.00
0.00 0.00 0.01 0.01 0.00 0.03 0.01 0.00 0.00 0.00 0.00 0.00 0.00 0.00 0.00 0.00 0.00 0.00 0.00 0.00 0.00 0.00 0.00 0.00 0.00 0.00 0.00 0.00 0.00 0.00 0.00 0.00 0.00 0.00 0.00 0.00 0.00 0.00 0.00 0.00 0.00 0.00 0.00
0.00 0.00 0.00 0.01 0.00 0.01 0.01 0.01 0.00 0.00 0.00 0.00 0.00 0.00 0.00 0.00 0.00 0.00 0.00 0.00 0.00 0.00 0.00 0.00 0.00 0.00 0.00 0.00 0.00 0.00 0.00 0.00 0.00 0.00 0.00 0.00 0.00 0.00 0.00 0.00 0.00 0.00 0.00
0.00 0.00 0.01 0.02 0.01 0.01 0.02 0.01 0.01 0.00 0.00 0.00 0.00 0.00 0.00 0.00 0.00 0.00 0.00 0.00 0.00 0.00 0.00 0.00 0.00 0.00 0.00 0.00 0.00 0.00 0.00 0.00 0.00 0.00 0.00 0.00 0.00 0.00 0.00 0.00 0.00 0.00 0.00
0.00 0.00 0.00 0.01 0.01 0.00 0.01 0.02 0.02 0.02 0.01 0.01 0.01 0.00 0.00 0.00 0.00 0.00 0.00 0.00 0.00 0.00 0.00 0.00 0.00 0.00 0.00 0.00 0.00 0.00 0.00 0.00 0.00 0.00 0.00 0.00 0.00 0.00 0.00 0.00 0.00 0.00 0.00
0.00 0.00 0.00 0.00 0.00 0.01 0.02 0.01 0.01 0.02 0.02 0.01 0.03 0.01 0.01 0.01 0.00 0.00 0.00 0.00 0.00 0.00 0.00 0.00 0.00 0.00 0.00 0.00 0.00 0.00 0.00 0.00 0.00 0.00 0.00 0.00 0.00 0.00 0.00 0.00 0.00 0.00 0.00
0.00 0.00 0.00 0.00 0.00 0.01 0.04 0.02 0.02 0.02 0.03 0.01 0.02 0.01 0.01 0.01 0.00 0.01 0.01 0.00 0.00 0.00 0.00 0.00 0.00 0.00 0.00 0.00 0.00 0.00 0.00 0.00 0.00 0.00 0.00 0.00 0.00 0.00 0.00 0.00 0.00 0.00 0.00
0.00 0.00 0.00 0.00 0.00 0.00 0.01 0.03 0.03 0.02 0.01 0.01 0.01 0.01 0.01 0.01 0.01 0.00 0.00 0.01 0.00 0.00 0.00 0.00 0.00 0.00 0.00 0.00 0.00 0.00 0.00 0.00 0.00 0.00 0.00 0.00 0.00 0.00 0.00 0.00 0.00 0.00 0.00
0.00 0.00 0.00 0.00 0.00 0.00 0.00 0.00 0.00 0.00 0.00 0.00 0.00 0.00 0.00 0.00 0.00 0.00 0.00 0.00 0.00 0.00 0.00 0.00 0.00 0.00 0.00 0.00 0.00 0.00 0.00 0.00 0.00 0.00 0.00 0.00 0.00 0.00 0.00 0.00 0.00 0.00 0.00
0.00 0.00 0.00 0.00 0.00 0.00 0.00 0.00 0.00 0.00 0.00 0.00 0.00 0.00 0.00 0.00 0.00 0.00 0.00 0.00 0.00 0.00 0.00 0.00 0.00 0.00 0.00 0.00 0.00 0.00 0.00 0.00 0.00 0.00 0.00 0.00 0.00 0.00 0.00 0.00 0.00 0.00 0.00
0.00 0.00 0.00 0.00 0.00 0.00 0.00 0.00 0.00 0.00 0.00 0.00 0.00 0.00 0.00 0.00 0.00 0.00 0.00 0.00 0.00 0.00 0.00 0.00 0.00 0.00 0.00 0.00 0.00 0.00 0.00 0.00 0.00 0.00 0.00 0.00 0.00 0.00 0.00 0.00 0.00 0.00 0.00
0.00 0.00 0.00 0.00 0.00 0.00 0.00 0.00 0.00 0.00 0.00 0.00 0.00 0.00 0.00 0.00 0.00 0.00 0.00 0.00 0.00 0.00 0.00 0.00 0.00 0.00 0.00 0.00 0.00 0.00 0.00 0.00 0.00 0.00 0.00 0.00 0.00 0.00 0.00 0.00 0.00 0.00 0.00
0.00 0.00 0.00 0.00 0.00 0.00 0.00 0.00 0.00 0.00 0.00 0.00 0.00 0.00 0.00 0.00 0.00 0.00 0.00 0.00 0.00 0.00 0.00 0.00 0.00 0.00 0.00 0.00 0.00 0.00 0.00 0.00 0.00 0.00 0.00 0.00 0.00 0.00 0.00 0.00 0.00 0.00 0.00
0.00 0.00 0.00 0.00 0.00 0.00 0.00 0.00 0.00 0.00 0.00 0.00 0.00 0.00 0.00 0.00 0.00 0.00 0.00 0.00 0.00 0.00 0.00 0.00 0.00 0.00 0.00 0.00 0.00 0.00 0.00 0.00 0.00 0.00 0.00 0.00 0.00 0.00 0.00 0.00 0.00 0.00 0.00
0.00 0.00 0.00 0.00 0.00 0.00 0.00 0.00 0.00 0.00 0.00 0.00 0.00 0.00 0.00 0.00 0.00 0.00 0.00 0.00 0.00 0.00 0.00 0.00 0.00 0.00 0.00 0.00 0.00 0.00 0.00 0.00 0.00 0.00 0.00 0.00 0.00 0.00 0.00 0.00 0.00 0.00 0.00
0.00 0.00 0.00 0.00 0.00 0.00 0.00 0.00 0.00 0.00 0.00 0.00 0.00 0.00 0.00 0.00 0.00 0.00 0.00 0.00 0.00 0.00 0.00 0.00 0.00 0.00 0.00 0.00 0.00 0.00 0.00 0.00 0.00 0.00 0.00 0.00 0.00 0.00 0.00 0.00 0.00 0.00 0.00
0.00 0.00 0.00 0.00 0.00 0.00 0.00 0.00 0.00 0.00 0.00 0.00 0.00 0.00 0.00 0.00 0.00 0.00 0.00 0.00 0.00 0.00 0.00 0.00 0.00 0.00 0.00 0.00 0.00 0.00 0.00 0.00 0.00 0.00 0.00 0.00 0.00 0.00 0.00 0.00 0.00 0.00 0.00
0.00 0.00 0.00 0.00 0.00 0.00 0.00 0.00 0.00 0.00 0.00 0.00 0.00 0.00 0.00 0.00 0.00 0.00 0.00 0.00 0.00 0.00 0.00 0.00 0.00 0.00 0.00 0.00 0.00 0.00 0.00 0.00 0.00 0.00 0.00 0.00 0.00 0.00 0.00 0.00 0.00 0.00 0.00
0.00 0.00 0.00 0.00 0.00 0.00 0.00 0.00 0.00 0.00 0.00 0.00 0.00 0.00 0.00 0.00 0.00 0.00 0.00 0.00 0.00 0.00 0.00 0.00 0.00 0.00 0.00 0.00 0.00 0.00 0.00 0.00 0.00 0.00 0.00 0.00 0.00 0.00 0.00 0.00 0.00 0.00 0.00
0.00 0.00 0.00 0.00 0.00 0.00 0.00 0.00 0.00 0.00 0.00 0.00 0.00 0.00 0.00 0.00 0.00 0.00 0.00 0.00 0.00 0.00 0.00 0.00 0.00 0.00 0.00 0.00 0.00 0.00 0.00 0.00 0.00 0.00 0.00 0.00 0.00 0.00 0.00 0.00 0.00 0.00 0.00
0.00 0.00 0.00 0.00 0.00 0.00 0.00 0.00 0.00 0.00 0.00 0.00 0.00 0.00 0.00 0.00 0.00 0.00 0.00 0.00 0.00 0.00 0.00 0.00 0.00 0.00 0.00 0.00 0.00 0.00 0.00 0.00 0.00 0.00 0.00 0.00 0.00 0.00 0.00 0.00 0.00 0.00 0.00
0.00 0.00 0.00 0.00 0.00 0.00 0.00 0.00 0.00 0.00 0.00 0.00 0.00 0.00 0.00 0.00 0.00 0.00 0.00 0.00 0.00 0.00 0.00 0.00 0.00 0.00 0.00 0.00 0.00 0.00 0.00 0.00 0.00 0.00 0.00 0.00 0.00 0.00 0.00 0.00 0.00 0.00 0.00
0.00 0.00 0.00 0.00 0.00 0.00 0.00 0.00 0.00 0.00 0.00 0.00 0.00 0.00 0.00 0.00 0.00 0.00 0.00 0.00 0.00 0.00 0.00 0.00 0.00 0.00 0.00 0.00 0.00 0.00 0.00 0.00 0.00 0.00 0.00 0.00 0.00 0.00 0.00 0.00 0.00 0.00 0.00
MSLP
1009.13 1009.42 1009.85 1010.14 1010.53 1010.69 1010.57 1010.64 1010.85 1011.55 1011.99 1012.60 1013.47 1014.24 1014.84 1015.29 1015.87 1016.47 1016.74 1017.87 1018.73 1019.67 1020.44 1020.98 1021.60 1022.23 1022.89 1023.40 1023.80 1024.15 1024.48 1024.73 1025.12 1025.42 1025.96 1025.95 1026.53 1026.77 1026.90 1027.15 1027.38 1027.75 1027.87
1008.94 1009.02 1009.39 1009.80 1010.31 1010.59 1010.83 1010.97 1011.12 1011.34 1011.69 1012.28 1013.11 1013.66 1014.14 1014.56 1015.93 1015.67 1016.45 1017.53 1018.24 1019.03 1019.68 1020.52 1021.09 1021.87 1022.42 1022.82 1023.26 1023.63 1024.06 1024.43 1024.64 1025.05 1025.51 1026.05 1026.20 1026.47 1026.52 1026.79 1027.00 1027.38 1027.54
1009.03 1008.91 1009.10 1009.46 1009.87 1010.36 1010.80 1011.16 1011.33 1011.73 1011.86 1012.54 1013.22 1013.64 1014.05 1014.79 1015.08 1015.35 1016.10 1016.92 1017.61 1018.26 1019.05 1019.78 1020.41 1021.30 1021.85 1022.22 1022.55 1022.98 1023.54 1023.98 1024.26 1024.66 1025.18 1025.85 1026.27 1026.46 1026.84 1026.93 1026.92 1027.06 1027.30
1009.66 1008.92 1008.84 1009.06 1009.43 1009.89 1010.49 1011.09 1011.18 1011.67 1012.09 1012.61 1012.79 1013.11 1013.65 1014.20 1014.65 1014.92 1015.51 1016.36 1017.20 1017.92 1018.50 1019.23 1019.88 1020.52 1020.83 1021.42 1021.85 1022.33 1022.97 1023.39 1023.78 1024.29 1024.74 1025.28 1025.78 1026.25 1026.45 1026.48 1026.90 1026.96 1026.96
1009.99 1009.08 1008.71 1008.68 1009.04 1009.55 1010.26 1010.65 1011.04 1011.20 1011.57 1011.77 1012.61 1012.82 1013.37 1013.86 1014.17 1014.87 1015.52 1016.09 1016.72 1017.50 1018.23 1018.82 1019.34 1019.71 1020.12 1020.56 1021.13 1021.69 1022.29 1022.66 1023.23 1023.78 1024.07 1024.63 1025.11 1025.66 1025.54 1025.69 1025.97 1026.34 1026.72
1010.31 1009.23 1008.76 1008.57 1008.71 1009.12 1009.54 1010.14 1010.60 1011.09 1011.32 1011.82 1012.34 1012.80 1013.36 1013.69 1014.04 1014.64 1015.24 1016.06 1016.68 1017.19 1017.81 1018.38 1018.84 1019.39 1019.86 1020.30 1020.76 1020.88 1021.38 1021.97 1022.45 1022.96 1023.06 1023.40 1023.56 1024.13 1024.59 1024.92 1025.38 1026.17 1026.59
1010.82 1009.68 1008.89 1008.58 1008.65 1008.87 1009.29 1009.75 1010.14 1010.58 1010.87 1011.19 1011.94 1012.55 1012.88 1013.19 1013.53 1014.04 1014.85 1015.60 1016.09 1016.43 1017.00 1017.71 1018.45 1018.82 1019.23 1019.78 1020.18 1020.54 1020.88 1021.16 1021.38 1021.75 1022.06 1022.22 1022.47 1022.84 1023.50 1024.26 1024.70 1024.85 1024.89
1011.29 1010.21 1009.39 1008.89 1008.72 1008.74 1009.10 1009.56 1010.01 1010.36 1010.65 1010.85 1011.22 1012.21 1012.24 1012.79 1013.37 1013.89 1014.50 1015.09 1015.69 1016.20 1016.53 1017.15 1017.77 1018.25 1018.70 1019.16 1019.70 1020.10 1020.26 1020.49 1020.75 1020.96 1021.19 1021.20 1021.36 1021.86 1022.31 1022.62 1023.35 1024.06 1025.01
1011.72 1011.00 1010.12 1009.61 1009.18 1008.90 1009.01 1009.32 1009.67 1009.97 1010.58 1010.73 1011.21 1011.53 1012.06 1012.82 1013.26 1013.91 1014.42 1014.96 1015.71 1016.04 1016.38 1016.72 1017.40 1017.76 1018.12 1018.68 1019.23 1019.35 1019.88 1019.88 1019.50 1020.15 1020.54 1020.68 1021.07 1021.54 1021.89 1022.68 1023.32 1024.19 1024.73
1011.83 1011.40 1010.76 1010.27 1009.97 1009.56 1009.39 1009.38 1009.55 1009.84 1010.26 1010.83 1011.22 1011.66 1012.09 1012.27 1012.86 1013.52 1014.09 1014.63 1015.19 1015.47 1016.05 1016.41 1016.97 1017.11 1017.72 1018.14 1018.50 1018.72 1019.33 1019.20 1019.69 1020.04 1020.22 1020.47 1020.66 1020.90 1021.28 1021.50 1022.14 1023.02 1023.93
1012.14 1011.77 1011.17 1010.98 1010.63 1010.35 1010.21 1010.03 1010.05 1010.34 1010.74 1011.20 1011.72 1012.25 1012.34 1012.61 1012.89 1013.28 1013.89 1014.27 1014.83 1015.15 1015.91 1016.29 1016.60 1016.95 1017.44 1017.66 1017.82 1018.44 1018.56 1018.81 1019.22 1019.54 1019.88 1020.05 1020.26 1020.50 1020.92 1021.11 1021.35 1021.82 1022.60
1012.00 1011.73 1011.67 1011.61 1011.41 1011.13 1010.93 1010.97 1010.94 1010.96 1011.54 1012.00 1012.33 1012.98 1013.17 1013.31 1013.28 1013.43 1013.73 1014.19 1014.64 1015.10 1015.71 1016.08 1016.38 1016.67 1017.01 1017.35 1017.76 1018.14 1018.38 1018.61 1018.79 1019.24 1019.62 1020.16 1020.36 1020.56 1020.81 1020.94 1021.19 1021.56 1021.90
1012.42 1011.67 1012.19 1012.20 1012.21 1012.12 1011.96 1012.04 1012.02 1012.08 1012.14 1012.63 1012.98 1013.42 1013.84 1013.86 1013.83 1013.97 1014.03 1014.48 1014.87 1015.28 1015.83 1016.16 1016.57 1016.98 1017.15 1017.36 1017.54 1017.76 1017.93 1018.21 1018.64 1019.13 1019.50 1020.09 1020.42 1020.45 1020.80 1021.35 1021.72 1021.78 1022.22
1012.52 1011.71 1012.68 1012.74 1012.94 1012.87 1013.07 1013.09 1013.00 1013.00 1013.07 1013.30 1013.54 1013.91 1014.17 1014.40 1014.38 1014.71 1014.75 1015.21 1015.51 1015.78 1016.50 1016.71 1016.71 1017.17 1017.37 1017.48 1017.75 1017.87 1017.99 1018.23 1018.58 1018.99 1019.49 1020.22 1020.59 1020.78 1021.06 1021.40 1022.03 1022.00 1022.54
1012.84 1011.89 1012.89 1013.36 1013.56 1013.69 1013.67 1013.87 1013.96 1014.06 1013.96 1014.03 1014.25 1014.37 1014.91 1014.98 1015.18 1015.14 1015.12 1015.47 1015.82 1016.18 1016.46 1016.99 1017.27 1017.43 1017.71 1018.05 1018.21 1018.28 1018.52 1018.68 1018.81 1019.28 1019.86 1020.27 1020.61 1020.95 1021.34 1021.48 1022.00 1022.24 1022.36
1013.03 1011.69 1012.92 1013.75 1014.31 1014.18 1014.23 1014.79 1015.08 1015.06 1014.82 1014.74 1014.76 1014.94 1015.40 1015.50 1015.71 1015.87 1016.11 1016.28 1016.58 1016.71 1016.95 1017.57 1017.86 1018.27 1018.62 1018.91 1018.84 1018.90 1019.27 1019.35 1019.52 1019.84 1020.26 1020.56 1020.85 1021.17 1021.42 1022.00 1021.91 1021.94 1022.17
1012.52 1012.22 1013.42 1014.04 1014.52 1014.53 1015.26 1015.67 1015.97 1016.36 1015.90 1015.89 1015.90 1016.10 1016.16 1016.44 1016.70 1016.75 1016.91 1017.12 1017.47 1017.57 1018.18 1018.74 1018.74 1019.08 1019.29 1019.40 1019.54 1019.75 1020.10 1020.25 1020.31 1020.40 1020.52 1020.78 1021.04 1021.22 1021.41 1021.77 1021.62 1022.01 1022.23
1013.14 1013.19 1013.35 1014.78 1015.15 1015.46 1016.29 1016.36 1016.50 1016.64 1016.95 1017.41 1017.54 1017.39 1017.31 1017.31 1017.57 1017.76 1017.80 1017.76 1018.59 1019.14 1019.40 1019.72 1019.92 1020.33 1020.41 1020.35 1020.38 1020.53 1020.76 1020.84 1020.92 1021.05 1021.15 1021.37 1021.54 1021.46 1021.60 1021.67 1021.81 1022.16 1022.23
1014.73 1014.51 1014.83 1015.48 1015.72 1016.33 1016.81 1017.05 1017.31 1017.68 1018.26 1018.66 1018.83 1018.83 1018.68 1018.48 1018.45 1018.64 1018.67 1019.00 1019.76 1020.18 1020.57 1020.91 1021.15 1021.25 1021.30 1021.26 1021.39 1021.46 1021.44 1021.56 1021.64 1021.64 1021.55 1021.61 1021.79 1021.65 1021.76 1022.04 1022.15 1022.15 1022.20
1016.57 1016.25 1016.85 1016.87 1016.83 1017.10 1017.64 1017.86 1018.04 1018.45 1019.10 1019.59 1019.78 1019.89 1019.70 1019.30 1019.26 1019.72 1020.16 1020.50 1020.67 1021.00 1021.31 1021.66 1021.96 1022.05 1022.15 1022.18 1022.19 1022.17 1022.26 1022.35 1022.34 1022.31 1022.20 1022.10 1022.13 1022.12 1022.20 1022.24 1022.13 1022.15 1022.10
1018.35 1018.12 1018.53 1018.20 1017.80 1018.47 1018.64 1018.95 1019.17 1019.59 1019.73 1020.15 1020.61 1020.84 1020.79 1020.38 1020.59 1020.94 1021.37 1021.96 1022.07 1022.28 1022.45 1022.47 1022.70 1022.95 1023.13 1023.26 1023.17 1023.07 1023.02 1023.06 1022.98 1022.84 1022.76 1022.77 1022.78 1022.64 1022.62 1022.55 1022.35 1022.23 1022.16
1020.02 1020.20 1020.02 1019.66 1019.11 1019.67 1019.86 1020.12 1020.77 1020.96 1021.18 1021.42 1021.68 1021.55 1021.96 1021.95 1021.84 1021.98 1022.30 1022.79 1023.05 1023.12 1023.13 1023.21 1023.40 1023.66 1023.91 1024.05 1024.13 1024.13 1023.99 1023.86 1023.69 1023.51 1023.39 1023.23 1023.09 1023.00 1022.85 1022.64 1022.42 1022.30 1022.29
1022.06 1021.95 1021.31 1021.33 1021.04 1021.12 1021.45 1021.80 1021.74 1021.91 1022.26 1022.29 1022.36 1022.89 1023.08 1023.22 1023.38 1023.15 1023.17 1023.65 1023.80 1023.63 1023.94 1024.15 1024.15 1024.32 1024.44 1024.59 1024.80 1024.91 1024.84 1024.59 1024.24 1024.13 1024.05 1023.77 1023.52 1023.32 1023.02 1022.74 1022.60 1022.52 1022.42
1023.30 1022.46 1022.42 1022.20 1021.83 1021.89 1022.53 1022.75 1022.73 1022.73 1022.86 1023.17 1023.66 1023.56 1023.69 1023.71 1024.02 1024.28 1024.02 1023.84 1023.89 1024.27 1024.56 1024.63 1024.70 1024.79 1024.89 1025.04 1025.04 1025.06 1025.05 1024.86 1024.32 1024.21 1024.13 1023.92 1023.84 1023.75 1023.53 1023.43 1023.22 1023.05 1022.81
1024.19 1023.84 1023.70 1023.19 1022.90 1023.14 1023.66 1023.75 1023.42 1023.62 1023.65 1024.04 1024.33 1024.37 1024.34 1024.47 1024.58 1024.45 1024.56 1024.53 1024.40 1024.46 1024.70 1024.90 1025.05 1025.09 1025.09 1025.14 1025.09 1024.93 1024.63 1024.03 1023.84 1023.77 1023.85 1023.87 1023.80 1023.72 1023.60 1023.43 1023.26 1022.95 1022.87
1024.92 1024.73 1024.16 1023.75 1023.98 1024.15 1024.32 1024.59 1024.39 1024.25 1024.31 1024.43 1025.10 1025.29 1024.96 1024.71 1024.83 1024.62 1024.38 1024.68 1024.70 1024.59 1024.74 1024.76 1024.91 1025.00 1024.94 1024.78 1024.70 1024.45 1023.93 1023.68 1023.56 1023.40 1023.35 1023.43 1023.42 1023.47 1023.44 1023.36 1023.20 1023.05 1022.87
Thickness
5583 5583 5580 5577 5573 5570 5570 5567 5563 5554 5547 5540 5535 5532 5534 5543 5550 5557 5570 5574 5580 5581 5582 5586 5589 5590 5590 5592 5594 5596 5597 5599 5601 5600 5598 5600 5599 5599 5600 5599 5598 5595 5592
5576 5578 5577 5573 5568 5563 5560 5557 5555 5553 5550 5546 5539 5538 5540 5551 5549 5562 5567 5570 5575 5578 5581 5581 5585 5583 5586 5588 5589 5592 5592 5591 5595 5595 5593 5591 5593 5592 5593 5593 5591 5587 5585
5567 5570 5571 5569 5565 5561 5555 5550 5549 5547 5549 5543 5541 5543 5546 5548 5555 5562 5564 5567 5573 5576 5577 5579 5582 5578 5580 5583 5586 5587 5585 5584 5587 5588 5586 5581 5582 5582 5580 5581 5581 5578 5576
5550 5563 5565 5564 5562 5558 5553 5547 5548 5543 5543 5541 5545 5546 5548 5549 5552 5561 5565 5567 5568 5570 5574 5575 5575 5576 5580 5580 5582 5582 5578 5579 5580 5580 5579 5577 5575 5573 5572 5574 5569 5567 5567
5538 5552 5559 5561 5558 5555 5549 5546 5545 5545 5543 5544 5542 5545 5546 5550 5556 5559 5561 5565 5569 5570 5569 5569 5571 5574 5575 5577 5576 5575 5574 5573 5574 5572 5573 5570 5568 5563 5565 5564 5565 5560 5557
5526 5540 5551 5555 5555 5552 5550 5547 5544 5542 5543 5542 5540 5540 5542 5546 5550 5553 5557 5560 5561 5564 5564 5565 5566 5564 5565 5567 5567 5568 5570 5567 5567 5565 5567 5568 5567 5563 5560 5559 5555 5549 5548
5513 5527 5539 5548 5550 5549 5546 5545 5545 5543 5542 5542 5541 5540 5543 5545 5548 5550 5549 5549 5553 5559 5559 5557 5555 5558 5558 5558 5559 5561 5560 5561 5564 5563 5564 5563 5563 5560 5554 5549 5546 5546 5550
5499 5512 5524 5536 5542 5545 5544 5541 5542 5542 5542 5543 5544 5541 5546 5546 5547 5546 5546 5548 5549 5550 5553 5553 5552 5553 5552 5552 5551 5552 5555 5555 5553 5554 5556 5557 5556 5553 5550 5548 5544 5540 5532
5487 5497 5508 5518 5530 5537 5539 5538 5538 5539 5538 5538 5541 5543 5542 5539 5540 5539 5540 5541 5539 5540 5542 5543 5542 5543 5543 5543 5543 5545 5542 5546 5550 5546 5545 5546 5546 5543 5540 5535 5530 5523 5521
5476 5485 5494 5503 5511 5520 5527 5530 5531 5533 5534 5533 5534 5533 5536 5540 5538 5536 5536 5537 5535 5539 5534 5536 5535 5537 5536 5536 5537 5538 5535 5538 5536 5534 5535 5535 5534 5532 5530 5528 5524 5518 5508
5462 5471 5481 5488 5496 5504 5509 5516 5520 5521 5521 5522 5522 5522 5524 5526 5528 5529 5528 5531 5531 5533 5527 5527 5527 5527 5528 5529 5531 5528 5529 5528 5527 5526 5525 5524 5523 5521 5518 5516 5515 5511 5503
5453 5462 5469 5475 5482 5489 5495 5500 5506 5509 5508 5509 5510 5508 5510 5512 5516 5520 5523 5522 5521 5521 5519 5517 5518 5519 5518 5519 5519 5517 5518 5518 5518 5516 5513 5508 5507 5506 5503 5502 5501 5498 5493
5441 5454 5455 5461 5467 5472 5478 5482 5488 5493 5497 5496 5497 5499 5498 5502 5506 5509 5512 5512 5511 5511 5509 5509 5509 5507 5509 5510 5510 5510 5510 5509 5507 5503 5501 5496 5493 5494 5491 5487 5483 5483 5479
5430 5443 5442 5447 5453 5459 5462 5466 5471 5475 5479 5482 5484 5486 5487 5490 5494 5494 5497 5497 5498 5499 5494 5495 5498 5496 5497 5498 5496 5496 5497 5496 5496 5493 5490 5484 5481 5481 5477 5474 5468 5469 5464
5418 5433 5431 5432 5438 5442 5448 5451 5455 5458 5463 5467 5469 5472 5472 5475 5476 5480 5485 5486 5485 5485 5485 5483 5483 5483 5483 5481 5481 5481 5480 5481 5481 5478 5473 5470 5468 5465 5462 5460 5455 5452 5451
5407 5425 5421 5420 5422 5427 5432 5433 5435 5440 5446 5450 5455 5457 5457 5459 5460 5463 5465 5467 5468 5469 5470 5468 5467 5465 5464 5463 5465 5465 5463 5463 5462 5459 5456 5453 5451 5449 5446 5441 5440 5440 5438
5402 5409 5407 5407 5408 5414 5414 5415 5417 5418 5426 5430 5434 5436 5438 5439 5441 5444 5445 5446 5446 5448 5445 5442 5444 5444 5444 5444 5443 5443 5441 5440 5440 5440 5440 5437 5435 5432 5430 5428 5428 5424 5420
5383 5388 5394 5387 5391 5395 5394 5399 5403 5407 5408 5407 5410 5414 5418 5421 5422 5423 5425 5427 5423 5420 5421 5421 5422 5421 5421 5423 5423 5423 5421 5421 5421 5420 5419 5417 5415 5415 5414 5412 5409 5406 5404
5354 5364 5369 5370 5374 5375 5378 5382 5386 5388 5388 5387 5390 5392 5397 5402 5406 5407 5408 5407 5403 5401 5399 5398 5397 5398 5399 5400 5401 5401 5401 5401 5400 5400 5401 5400 5398 5398 5397 5393 5391 5391 5388
5326 5338 5340 5346 5352 5357 5360 5364 5368 5370 5369 5369 5372 5374 5380 5387 5390 5389 5387 5385 5385 5384 5382 5380 5378 5378 5379 5379 5380 5381 5380 5380 5379 5379 5379 5380 5378 5377 5376 5375 5374 5373 5372
5300 5312 5316 5324 5333 5334 5340 5344 5348 5350 5355 5356 5356 5358 5362 5368 5368 5369 5366 5362 5362 5361 5360 5361 5359 5358 5357 5356 5358 5359 5360 5359 5359 5359 5359 5358 5357 5357 5356 5355 5355 5355 5354
5276 5283 5293 5303 5314 5314 5318 5323 5323 5327 5331 5333 5335 5341 5340 5343 5347 5348 5347 5342 5340 5341 5341 5342 5341 5340 5338 5337 5337 5337 5338 5338 5338 5339 5340 5340 5340 5339 5339 5339 5339 5339 5337
5254 5260 5273 5279 5288 5293 5295 5299 5306 5309 5311 5315 5319 5317 5318 5320 5321 5324 5325 5322 5321 5323 5321 5320 5322 5322 5321 5321 5319 5319 5320 5320 5321 5321 5321 5322 5323 5323 5324 5325 5324 5323 5322
5237 5251 5258 5265 5274 5279 5279 5282 5287 5294 5296 5296 5295 5299 5301 5303 5302 5301 5304 5307 5309 5306 5304 5305 5306 5308 5308 5307 5307 5308 5308 5308 5310 5310 5310 5309 5308 5307 5307 5305 5305 5304 5304
5223 5232 5240 5248 5255 5259 5260 5263 5271 5273 5277 5277 5278 5281 5284 5285 5286 5289 5289 5291 5295 5295 5295 5294 5293 5295 5296 5297 5298 5299 5300 5301 5301 5300 5299 5297 5295 5292 5292 5291 5290 5289 5287
5210 5217 5227 5236 5238 5241 5245 5246 5253 5258 5261 5263 5259 5260 5267 5272 5273 5277 5281 5280 5282 5284 5285 5285 5284 5285 5287 5288 5289 5289 5290 5290 5290 5289 5288 5285 5283 5280 5278 5276 5273 5271 5268